Regional Weather Roundup
Issued by NWS Goodland, KS

Home | Current Version | Previous Version | Text Only | Print | Product List | Glossary Off
Versions: 1 2 3 4 5 6 7 8 9 10 11 12 13 14 15 16 17 18 19 20 21 22 23 24 25 26 27 28 29 30 31 32 33 34 35 36 37 38 39 40 41 42 43 44 45 46 47 48 49 50

426
ASUS43 KGLD 230008
RWRGLD

GOODLAND FORECAST AREA HOURLY WEATHER ROUNDUP
NATIONAL WEATHER SERVICE GOODLAND KS
600 PM MDT WED MAR 22 2017

...OFFICIAL OBSERVATIONS...

CITY           SKY/WX    TMP DP  RH WIND       PRES   REMARKS
GOODLAND KS    CLOUDY    57  39  51 SE25      29.92F
HILL CITY KS   CLOUDY    53  34  48 SE12      30.04F
IMPERIAL NEB   SUNNY     55  35  47 S25G31    29.94S
MCCOOK NEB     CLOUDY    52  33  48 SE16G23   30.01S
AKRON CO       CLOUDY    66  35  31 SE21      29.86S
BURLINGTON CO  CLOUDY    60  39  45 SE29G35   29.91F
LIMON CO       CLOUDY    61  38  42 SE13G22   29.91R
$$

...UNOFFICIAL OBSERVATIONS...

CITY           SKY/WX    TMP DP  RH WIND       PRES   REMARKS
LENORA KS        N/A     50  32  50 SE12        N/A
NORTON KS      CLOUDY    50  27  40 SE13G18   30.04F
SHARON SPRINGS   N/A     60  41  49 SE20G28     N/A
TRENTON NEB      N/A     52  32  46 SE12        N/A
YUMA CO        FAIR      61  34  36 SE16      29.89R
$$




USA.gov is the U.S. government's official web portal to all federal, state and local government web resources and services.